Location: Mexico
(19.4000°N, 99.1500°W)
Time: 14:26:11
(UTC-06:00)

ISS - Pass Details

Date: 13 January 2021
Orbit: 418 x 419 km, 51.6° (Epoch: 16 January)

Event Time Altitude Azimuth Distance (km) Brightness Sun altitude
Exits shadow 05:12:34 20° 81° (E) 1,041 -1.1 -27.9°
Drops below altitude 10° 05:14:08 10° 104° (ESE) 1,487 0.0 -27.5°
Sets 05:16:28 0° 119° (ESE) 2,348 1.2 -27.0°
